GW5900 Weather Reports


time (UTC)temp
C
wind
direction
speed
KPH
gust
KPH
rain 1hr
cm
rain 24hr
cm
rain mn
cm
humidity
%
barometer
mb
20260906154954 35 244 1.6 4.8 0.00 0.00 0.00 48 1013.4
20260906154451 35 244 0.0 4.8 0.00 0.00 0.00 57 1013.4
20260906153932 34 201 0.0 4.8 0.00 0.00 0.00 53 1013.3
20260906153424 33 201 0.0 4.8 0.00 0.00 0.00 51 1013.3
20260906152859 33 201 0.0 1.6 0.00 0.00 0.00 57 1013.3
20260906152358 33 201 0.0 1.6 0.00 0.00 0.00 60 1013.3
20260906151842 33 201 0.0 0.0 0.00 0.00 0.00 62 1013.3
20260906151327 32 201 0.0 0.0 0.00 0.00 0.00 62 1013.2
20260906150746 32 201 0.0 4.8 0.00 0.00 0.00 62 1013.2
20260906150227 32 201 0.0 4.8 0.00 0.00 0.00 61 1013.1
20260906145722 32 174 0.0 0.0 0.00 0.00 0.00 64 1013.2
20260906145423 31 174 0.0 0.0 0.00 0.00 0.00 63 1013.2
20260906144700 31 174 0.0 1.6 0.00 0.00 0.00 67 1013.2
20260906144124 31 174 0.0 1.6 0.00 0.00 0.00 67 1013.2
20260906143602 31 174 0.0 1.6 0.00 0.00 0.00 68 1013.2
20260906143102 31 174 0.0 0.0 0.00 0.00 0.00 67 1013.2
20260906142519 30 174 0.0 0.0 0.00 0.00 0.00 70 1013.2
20260906141937 30 174 0.0 0.0 0.00 0.00 0.00 72 1013.2
20260906141356 30 174 0.0 1.6 0.00 0.00 0.00 72 1013.2
20260906141109 30 174 0.0 1.6 0.00 0.00 0.00 72 1013.2
20260906140340 29 140 0.0 1.6 0.00 0.00 0.00 76 1013.1
20260906140043 28 140 0.0 1.6 0.00 0.00 0.00 77 1013.2
20260906135240 28 140 0.0 1.6 0.00 0.00 0.00 78 1013.2
20260906134700 28 140 0.0 1.6 0.00 0.00 0.00 78 1013.2
20260906134122 28 140 0.0 0.0 0.00 0.00 0.00 81 1013.1
20260906133541 27 140 0.0 0.0 0.00 0.00 0.00 84 1013.1
20260906133001 27 140 0.0 0.0 0.00 0.00 0.00 85 1013.1
20260906132424 26 140 0.0 0.0 0.00 0.00 0.00 85 1013.1
20260906131844 26 140 0.0 0.0 0.00 0.00 0.00 86 1013.0
20260906131323 26 140 0.0 0.0 0.00 0.00 0.00 88 1012.9
20260906130745 26 140 0.0 0.0 0.00 0.00 0.00 88 1012.9
20260906130206 26 140 0.0 0.0 0.00 0.00 0.00 88 1012.9
20260906125632 25 140 0.0 0.0 0.00 0.00 0.00 91 1012.8
20260906125115 25 140 0.0 0.0 0.00 0.00 0.00 91 1012.8
20260906124800 25 140 0.0 0.0 0.00 0.00 0.00 92 1012.8
20260906124019 24 140 0.0 0.0 0.00 0.00 0.00 92 1012.8
20260906123736 24 140 0.0 0.0 0.00 0.00 0.00 92 1012.8
20260906123015 24 140 0.0 0.0 0.00 0.00 0.00 93 1012.8
20260906122444 24 140 0.0 0.0 0.00 0.00 0.00 93 1012.6
20260906121927 24 140 0.0 0.0 0.00 0.00 0.00 92 1012.6
20260906121349 24 140 0.0 0.0 0.00 0.00 0.00 92 1012.3
20260906120818 24 140 0.0 0.0 0.00 0.00 0.00 92 1012.3
20260906120253 24 140 0.0 0.0 0.00 0.00 0.00 93 1012.3
20260906115727 23 140 0.0 0.0 0.00 0.00 0.00 93 1012.3
20260906115155 23 140 0.0 0.0 0.00 0.00 0.00 94 1012.3
20260906114622 24 140 0.0 0.0 0.00 0.00 0.00 93 1012.3
20260906114051 24 140 0.0 0.0 0.00 0.00 0.00 94 1012.1
20260906113521 23 140 0.0 0.0 0.00 0.00 0.00 94 1012.1
20260906113007 23 140 0.0 0.0 0.00 0.00 0.00 94 1012.1
20260906112434 23 140 0.0 0.0 0.00 0.00 0.00 94 1011.8
20260906111903 24 140 0.0 0.0 0.00 0.00 0.00 94 1011.8
20260906111333 24 140 0.0 0.0 0.00 0.00 0.00 93 1011.8
20260906110803 24 140 0.0 0.0 0.00 0.00 0.00 93 1011.8
20260906110725 24 140 0.0 0.0 0.00 0.00 0.00 93 1011.8
20260906105721 24 140 0.0 0.0 0.00 0.00 0.00 93 1011.8
20260906105412 24 140 0.0 0.0 0.00 0.00 0.00 93 1011.8
20260906104622 24 140 0.0 0.0 0.00 0.00 0.00 92 1011.8
20260906104311 24 140 0.0 0.0 0.00 0.00 0.00 92 1011.7
20260906103522 24 140 0.0 0.0 0.00 0.00 0.00 91 1011.7
20260906102951 24 140 0.0 0.0 0.00 0.00 0.00 91 1011.7
20260906102443 24 140 0.0 0.0 0.00 0.00 0.00 91 1011.6
20260906101910 25 140 0.0 0.0 0.00 0.00 0.00 91 1011.6
20260906101358 25 140 0.0 0.0 0.00 0.00 0.00 89 1011.6
20260906100823 25 140 0.0 0.0 0.00 0.00 0.00 88 1011.6
20260906100253 25 140 0.0 0.0 0.00 0.00 0.00 88 1011.6
20260906095720 25 140 0.0 0.0 0.00 0.00 0.00 89 1011.4
20260906095209 25 140 0.0 0.0 0.00 0.00 0.00 91 1011.4
20260906094647 25 140 0.0 0.0 0.00 0.00 0.00 91 1011.4
20260906094135 25 140 0.0 0.0 0.00 0.00 0.00 89 1011.3
20260906093601 25 140 0.0 0.0 0.00 0.00 0.00 89 1011.3
20260906093011 25 140 0.0 0.0 0.00 0.00 0.00 88 1011.3
20260906092433 25 140 0.0 0.0 0.00 0.00 0.00 88 1011.2
20260906091851 25 140 0.0 0.0 0.00 0.00 0.00 89 1011.2
20260906091315 25 140 0.0 0.0 0.00 0.00 0.00 88 1011.1
20260906090733 25 140 0.0 0.0 0.00 0.00 0.00 87 1011.1
20260906090232 25 140 0.0 0.0 0.00 0.00 0.00 87 1011.1
20260906085641 25 140 0.0 0.0 0.00 0.00 0.00 88 1010.9
20260906085115 25 138 0.0 0.0 0.00 0.00 0.00 88 1010.9
20260906084611 25 140 0.0 0.0 0.00 0.00 0.00 88 1010.9
20260906084021 25 140 0.0 0.0 0.00 0.00 0.00 87 1010.9
20260906083452 25 140 0.0 1.6 0.00 0.00 0.00 86 1010.9
20260906082925 25 140 0.0 1.6 0.00 0.00 0.00 86 1010.9
20260906082422 25 140 0.0 0.0 0.00 0.00 0.00 87 1010.7
20260906081831 25 140 0.0 0.0 0.00 0.00 0.00 87 1010.7
20260906081241 25 140 0.0 0.0 0.00 0.00 0.00 88 1010.6
20260906080714 25 140 0.0 0.0 0.00 0.00 0.00 88 1010.6
20260906080127 25 140 0.0 0.0 0.00 0.00 0.00 87 1010.6
20260906075533 25 140 0.0 0.0 0.00 0.00 0.00 87 1010.8
20260906075014 25 140 0.0 0.0 0.00 0.00 0.00 86 1010.8
20260906074506 25 140 0.0 0.0 0.00 0.00 0.00 87 1010.8
20260906073947 25 140 0.0 0.0 0.00 0.00 0.00 88 1010.9
20260906073624 25 140 0.0 0.0 0.00 0.00 0.00 87 1010.9
20260906072817 25 140 0.0 0.0 0.00 0.00 0.00 87 1011.1
20260906072450 25 140 0.0 0.0 0.00 0.00 0.00 87 1011.1
20260906071707 25 140 0.0 0.0 0.00 0.00 0.00 87 1011.1
20260906071635 25 140 0.0 0.0 0.00 0.00 0.00 87 1011.2
20260906070553 25 140 0.0 0.0 0.00 0.00 0.00 87 1011.2
20260906070005 25 140 0.0 0.0 0.00 0.00 0.00 87 1011.2
20260906065429 26 140 0.0 0.0 0.00 0.00 0.00 86 1011.2
20260906064854 26 140 0.0 0.0 0.00 0.00 0.00 87 1011.2
20260906064313 26 140 0.0 0.0 0.00 0.00 0.00 86 1011.3
20260906063747 26 140 0.0 0.0 0.00 0.00 0.00 85 1011.3
20260906063203 26 140 0.0 0.0 0.00 0.00 0.00 86 1011.4
20260906062620 26 140 0.0 0.0 0.00 0.00 0.00 86 1011.4
20260906062034 26 140 0.0 0.0 0.00 0.00 0.00 86 1011.3
20260906061453 26 140 0.0 0.0 0.00 0.00 0.00 85 1011.4
20260906060914 26 140 0.0 0.0 0.00 0.00 0.00 85 1011.4
20260906060333 26 140 0.0 0.0 0.00 0.00 0.00 85 1011.4
20260906055751 26 140 0.0 0.0 0.00 0.00 0.00 84 1011.4
20260906055213 26 140 0.0 0.0 0.00 0.00 0.00 84 1011.4
20260906054633 26 140 0.0 0.0 0.00 0.00 0.00 84 1011.4
20260906054316 26 140 0.0 0.0 0.00 0.00 0.00 83 1011.5
20260906053513 26 140 0.0 0.0 0.00 0.00 0.00 82 1011.5
20260906052931 26 140 0.0 0.0 0.00 0.00 0.00 81 1011.5
20260906052355 26 140 0.0 0.0 0.00 0.00 0.00 81 1011.3
20260906051847 26 140 0.0 0.0 0.00 0.00 0.00 81 1011.3
20260906051349 27 140 0.0 0.0 0.00 0.00 0.00 80 1011.3
20260906050828 27 140 0.0 0.0 0.00 0.00 0.00 81 1011.3
20260906050249 27 140 0.0 0.0 0.00 0.00 0.00 80 1011.3
20260906045732 27 140 0.0 0.0 0.00 0.00 0.00 80 1011.2
20260906045412 27 140 0.0 0.0 0.00 0.00 0.00 80 1011.2
20260906044839 27 140 0.0 0.0 0.00 0.00 0.00 79 1011.2
20260906044040 27 140 0.0 0.0 0.00 0.00 0.00 79 1011.2
20260906043508 27 140 0.0 0.0 0.00 0.00 0.00 78 1011.2
20260906042911 27 140 0.0 0.0 0.00 0.00 0.00 78 1010.9
20260906042332 27 140 0.0 0.0 0.00 0.00 0.00 78 1010.9
20260906041818 27 140 0.0 0.0 0.00 0.00 0.00 78 1010.9
20260906041244 27 140 0.0 0.0 0.00 0.00 0.00 78 1011.1
20260906040715 27 140 0.0 0.0 0.00 0.00 0.00 77 1011.1
20260906040143 27 140 0.0 0.0 0.00 0.00 0.00 77 1011.1
20260906035606 28 140 0.0 0.0 0.00 0.00 0.00 75 1011.1
20260906035036 28 140 0.0 0.0 0.00 0.00 0.00 75 1011.1
20260906034505 28 140 0.0 0.0 0.00 0.00 0.00 74 1011.1
20260906033957 28 140 0.0 0.0 0.00 0.00 0.00 75 1011.3
20260906033641 28 140 0.0 0.0 0.00 0.00 0.00 74 1011.3
20260906032849 28 140 0.0 0.0 0.00 0.00 0.00 74 1011.5
20260906032318 28 140 0.0 0.0 0.00 0.00 0.00 74 1011.5
20260906031746 28 140 0.0 0.0 0.00 0.00 0.00 73 1011.5
20260906031214 28 140 0.0 0.0 0.00 0.00 0.00 73 1011.6
20260906030644 28 140 0.0 0.0 0.00 0.00 0.00 72 1011.6
20260906030110 28 140 0.0 0.0 0.00 0.00 0.00 72 1011.6
20260906025538 28 140 0.0 0.0 0.00 0.00 0.00 72 1011.7
20260906025007 29 140 0.0 0.0 0.00 0.00 0.00 70 1011.8
20260906024454 29 140 0.0 0.0 0.00 0.00 0.00 69 1011.8
20260906023925 29 140 0.0 0.0 0.00 0.00 0.00 69 1011.6
20260906023617 29 140 0.0 0.0 0.00 0.00 0.00 69 1011.6
20260906022824 29 140 0.0 0.0 0.00 0.00 0.00 68 1011.5
20260906022310 29 140 0.0 0.0 0.00 0.00 0.00 68 1011.5
20260906021731 30 140 0.0 0.0 0.00 0.00 0.00 67 1011.5
20260906021446 30 140 0.0 0.0 0.00 0.00 0.00 66 1011.1
20260906020728 30 140 0.0 0.0 0.00 0.00 0.00 65 1011.1
20260906020204 30 140 0.0 0.0 0.00 0.00 0.00 65 1011.1
20260906015626 30 140 0.0 0.0 0.00 0.00 0.00 65 1010.8
20260906015040 30 140 0.0 0.0 0.00 0.00 0.00 65 1010.8
20260906014510 30 140 0.0 0.0 0.00 0.00 0.00 65 1010.8
20260906013942 30 140 0.0 0.0 0.00 0.00 0.00 64 1010.7
20260906013647 31 140 0.0 0.0 0.00 0.00 0.00 63 1010.7
20260906012851 31 140 0.0 0.0 0.00 0.00 0.00 62 1010.6
20260906012306 31 140 0.0 0.0 0.00 0.00 0.00 61 1010.6
20260906011800 31 140 0.0 0.0 0.00 0.00 0.00 60 1010.6
20260906011515 31 140 0.0 0.0 0.00 0.00 0.00 60 1010.4
20260906010741 32 140 0.0 0.0 0.00 0.00 0.00 60 1010.5
20260906010238 32 140 0.0 0.0 0.00 0.00 0.00 56 1010.5
20260906005653 33 140 1.6 8.0 0.00 0.00 0.00 51 1010.4
20260906005336 33 140 1.6 8.0 0.00 0.00 0.00 51 1010.4
20260906004544 33 143 1.6 4.8 0.00 0.00 0.00 50 1010.4
20260906004044 33 152 0.0 4.8 0.00 0.00 0.00 50 1010.5
20260906003514 33 152 0.0 1.6 0.00 0.00 0.00 49 1010.5
20260906002930 34 152 0.0 4.8 0.00 0.00 0.00 48 1010.4
20260906002410 34 152 0.0 4.8 0.00 0.00 0.00 47 1010.4
20260906001906 35 152 1.6 8.0 0.00 0.00 0.00 47 1010.4
20260906001316 35 152 4.8 12.9 0.00 0.00 0.00 46 1010.5
20260906000750 35 153 1.6 12.9 0.00 0.00 0.00 46 1010.5
20260906000248 35 133 0.0 12.9 0.00 0.00 0.00 45 1010.5
20260905235809 35 33 0.0 0.0 0.00 0.00 0.00 46 1010.5
20260905234659 35 33 0.0 1.6 0.00 0.00 0.00 44 1010.5
20260905234404 36 33 0.0 4.8 0.00 0.00 0.00 44 1010.3
20260905233620 36 33 0.0 4.8 0.00 0.00 0.00 41 1010.3
20260905233117 36 33 0.0 1.6 0.00 0.00 0.00 42 1010.3
20260905232809 36 33 0.0 1.6 0.00 0.00 0.00 41 1010.4
20260905232046 36 33 0.0 4.8 0.00 0.00 0.00 42 1010.4
20260905231502 36 33 0.0 4.8 0.00 0.00 0.00 41 1010.4
20260905231000 36 33 0.0 4.8 0.00 0.00 0.00 40 1010.4
20260905230706 36 347 0.0 4.8 0.00 0.00 0.00 41 1010.4
20260905225856 37 332 0.0 1.6 0.00 0.00 0.00 40 1010.2
20260905225554 37 331 0.0 1.6 0.00 0.00 0.00 40 1010.2
20260905224826 37 334 0.0 4.8 0.00 0.00 0.00 40 1010.2
20260905224319 37 334 1.6 8.0 0.00 0.00 0.00 41 1010.2
20260905223816 37 334 1.6 12.9 0.00 0.00 0.00 40 1010.2
20260905223246 37 349 1.6 12.9 0.00 0.00 0.00 39 1010.2
20260905222943 38 347 1.6 12.9 0.00 0.00 0.00 39 1010.3
20260905222218 37 349 1.6 12.9 0.00 0.00 0.00 40 1010.3
20260905221651 38 338 1.6 8.0 0.00 0.00 0.00 38 1010.3
20260905221639 38 341 1.6 8.0 0.00 0.00 0.00 37 1010.4
20260905220633 38 341 1.6 8.0 0.00 0.00 0.00 38 1010.3
20260905220130 37 282 1.6 8.0 0.00 0.00 0.00 38 1010.3
20260905215835 38 239 0.0 1.6 0.00 0.00 0.00 36 1010.4
20260905215107 38 211 0.0 8.0 0.00 0.00 0.00 35 1010.4
20260905214546 38 162 1.6 8.0 0.00 0.00 0.00 35 1010.4
20260905214044 38 241 1.6 4.8 0.00 0.00 0.00 35 1010.5
20260905213541 38 162 0.0 4.8 0.00 0.00 0.00 40 1010.5
20260905213041 37 162 0.0 4.8 0.00 0.00 0.00 36 1010.5
20260905212513 37 162 1.6 8.0 0.00 0.00 0.00 34 1010.5
20260905212150 38 277 1.6 4.8 0.00 0.00 0.00 34 1010.5
20260905211418 38 344 1.6 8.0 0.00 0.00 0.00 32 1010.7
20260905210904 38 307 1.6 4.8 0.00 0.00 0.00 36 1010.7
20260905210345 38 349 1.6 4.8 0.00 0.00 0.00 34 1010.7
20260905205846 38 317 1.6 8.0 0.00 0.00 0.00 32 1011.1
20260905205323 38 71 4.8 8.0 0.00 0.00 0.00 36 1011.1
20260905204824 38 328 4.8 14.5 0.00 0.00 0.00 35 1011.1
20260905204306 38 156 1.6 14.5 0.00 0.00 0.00 34 1011.5
20260905203802 38 5 1.6 8.0 0.00 0.00 0.00 35 1011.5
20260905203244 38 142 1.6 8.0 0.00 0.00 0.00 35 1011.5
20260905202742 38 143 1.6 8.0 0.00 0.00 0.00 34 1011.6
20260905202224 38 169 1.6 8.0 0.00 0.00 0.00 32 1011.7
20260905201943 38 342 1.6 12.9 0.00 0.00 0.00 32 1011.7
20260905201628 38 146 1.6 12.9 0.00 0.00 0.00 34 1011.7
20260905200629 38 220 1.6 8.0 0.00 0.00 0.00 35 1011.8
20260905200130 38 16 1.6 8.0 0.00 0.00 0.00 34 1011.8
20260905195616 38 191 1.6 4.8 0.00 0.00 0.00 34 1011.9
20260905195112 38 88 1.6 8.0 0.00 0.00 0.00 32 1012.0
20260905194557 39 35 1.6 8.0 0.00 0.00 0.00 32 1012.0
20260905194058 38 97 1.6 4.8 0.00 0.00 0.00 32 1012.2
20260905193556 38 109 1.6 14.5 0.00 0.00 0.00 38 1012.2
20260905193043 38 157 4.8 16.1 0.00 0.00 0.00 35 1012.1
20260905192541 38 176 1.6 14.5 0.00 0.00 0.00 32 1012.4
20260905192021 38 108 1.6 14.5 0.00 0.00 0.00 34 1012.4
20260905191743 38 59 1.6 8.0 0.00 0.00 0.00 36 1012.5
20260905191012 38 43 4.8 8.0 0.00 0.00 0.00 36 1012.6
20260905190505 38 143 4.8 16.1 0.00 0.00 0.00 38 1012.6
20260905190004 38 164 1.6 16.1 0.00 0.00 0.00 34 1012.6
20260905185435 38 145 1.6 8.0 0.00 0.00 0.00 36 1012.7
20260905185029 38 129 1.6 8.0 0.00 0.00 0.00 36 1012.7
20260905183859 38 174 4.8 14.5 0.00 0.00 0.00 35 1013.0
20260905183357 38 152 4.8 14.5 0.00 0.00 0.00 35 1013.0
20260905182857 38 140 4.8 12.9 0.00 0.00 0.00 36 1013.2
20260905182616 37 157 4.8 14.5 0.00 0.00 0.00 36 1013.2
20260905182332 37 142 4.8 14.5 0.00 0.00 0.00 35 1013.2
20260905181317 37 180 1.6 8.0 0.00 0.00 0.00 37 1013.2
20260905180744 37 341 0.0 1.6 0.00 0.00 0.00 44 1013.2
20260905180208 37 341 1.6 8.0 0.00 0.00 0.00 43 1013.2
20260905175635 37 344 1.6 12.9 0.00 0.00 0.00 41 1013.3
20260905175103 37 338 1.6 12.9 0.00 0.00 0.00 39 1013.3
20260905174752 38 18 1.6 4.8 0.00 0.00 0.00 42 1013.3
20260905174025 37 308 1.6 4.8 0.00 0.00 0.00 42 1013.4
20260905173521 36 205 1.6 8.0 0.00 0.00 0.00 40 1013.4
20260905173227 36 176 1.6 8.0 0.00 0.00 0.00 41 1013.4
20260905172729 37 128 1.6 8.0 0.00 0.00 0.00 44 1013.7
20260905172004 37 36 4.8 14.5 0.00 0.00 0.00 45 1013.7
20260905171652 36 152 4.8 14.5 0.00 0.00 0.00 42 1013.8
20260905170903 36 57 1.6 8.0 0.00 0.00 0.00 43 1013.8
20260905170331 36 232 1.6 8.0 0.00 0.00 0.00 43 1013.8
20260905165802 37 16 1.6 4.8 0.00 0.00 0.00 43 1014.0
20260905165234 36 313 1.6 4.8 0.00 0.00 0.00 48 1014.0
20260905164703 36 335 1.6 4.8 0.00 0.00 0.00 44 1014.0
20260905164144 36 335 1.6 8.0 0.00 0.00 0.00 44 1014.2
20260905163614 35 335 1.6 8.0 0.00 0.00 0.00 48 1014.1
20260905163043 36 335 1.6 8.0 0.00 0.00 0.00 44 1014.1
20260905162514 35 335 1.6 12.9 0.00 0.00 0.00 46 1014.1
20260905162201 35 330 1.6 12.9 0.00 0.00 0.00 48 1014.1
20260905161629 35 337 0.0 4.8 0.00 0.00 0.00 51 1014.1
20260905161132 35 335 0.0 4.8 0.00 0.00 0.00 51 1014.1
20260905160354 34 335 1.6 8.0 0.00 0.00 0.00 51 1014.1
20260905155844 34 335 1.6 8.0 0.00 0.00 0.00 55 1014.3